Regional Weather Roundup
Issued by NWS Sterling, VA

Home | Current Version | Previous Version | Text Only | Print | Product List | Glossary On
Versions: 1 2 3 4 5 6 7 8 9 10 11 12 13 14 15 16 17 18 19 20 21 22 23 24 25 26 27 28 29 30 31 32 33 34 35 36 37 38 39 40 41 42 43 44 45 46 47 48 49 50
229
ASUS41 KLWX 290811
RWRLWX

REGIONAL WEATHER ROUNDUP
NATIONAL WEATHER SERVICE BALTIMORE MD/WASHINGTON DC
400 AM EDT FRI JUL 29 2016

Note: "FAIR" indicates few or no clouds below 12,000 feet
with no significant weather and/or obstructions to visibility.
 TC=TEMPERATURE CELSIUS

 * =Non NWS site. Station does not report precipitation (e.g. rain,
    snow, etc.), thunder, or fog.

DCZ001-MDZ009-015-VAZ040>042-051-053>054-290900-
WASHINGTON METRO

CITY           SKY/WX    TMP DP  RH WIND       PRES   REMARKS
WASHINGTON NAT RAIN      77  74  90 NW9       29.80S FOG
DULLES         HVY RAIN  72  71  97 NW8       29.82S FOG
ANDREWS AFB    CLOUDY    75  73  94 N2        29.78R
FT BELVOIR     DRIZZLE   76  74  93 NW6       29.79S
QUANTICO       CLOUDY    76  74  93 NW9       29.80F
LEESBURG*      LGT RAIN  73  73 100 N8        29.84F
MANASSAS*      CLOUDY    73  73 100 NW8       29.82S
GAITHERSBURG*  CLOUDY    72  70  94 NW3       29.86S

$$

MDZ006>007-011-014-290900-
BALTIMORE METRO

CITY           SKY/WX    TMP DP  RH WIND       PRES   REMARKS
BWI AIRPORT    LGT RAIN  74  72  93 N6        29.78F FOG
MD SCIENCE CTR   N/A     74  72  93 MISG      29.78F
MARTIN STATE   LGT RAIN  73  73 100 CALM      29.79F
ANNAPOLIS      CLOUDY    76  74  93 NW3       29.77F
FORT MEADE*    CLOUDY    73  72  94 NW5       29.81F

$$

MDZ012-015-019>023-290900-
MARYLAND EASTERN SHORE

CITY           SKY/WX    TMP DP  RH WIND       PRES   REMARKS
OCEAN CITY       N/A    N/A N/A N/A MISG      29.77S
SALISBURY      NOT AVBL
BAY BRIDGE AP* LGT RAIN  73  73 100 NE3       29.76F FOG
CAMBRIDGE*     CLOUDY    72  72 100 E10       29.73F
EASTON*        LGT RAIN  75  75 100 E6        29.78F

$$

MDZ017>025-290900-
SOUTHERN MARYLAND

CITY           SKY/WX    TMP DP  RH WIND       PRES   REMARKS
PATUXENT RIVER CLOUDY    75  73  93 SW6       29.76R
ST INIGOES     CLOUDY    79  75  87 SW7       29.75S
LEONARDTOWN*   CLOUDY    73  72  94 W5        29.78R

$$

MDZ003>005-290900-
NORTH CENTRAL MARYLAND

CITY           SKY/WX    TMP DP  RH WIND       PRES   REMARKS
FREDERICK*     RAIN      72  72 100 N5        29.85F
HAGERSTOWN APT CLOUDY    71  69  93 NW8       29.85S FOG

$$

MDZ501>502-290900-
WESTERN MARYLAND

CITY           SKY/WX    TMP DP  RH WIND       PRES   REMARKS
OAKLAND*       FOG       61  61 100 CALM      29.98F VSB 1/4
CUMBERLAND*    CLOUDY    70  70 100 CALM      29.93F

$$

VAZ025>031-290900-
SHENANDOAH VALLEY

CITY           SKY/WX    TMP DP  RH WIND       PRES   REMARKS
WINCHESTER*    LGT RAIN  70  68  94 NW8       29.87S
FRONT ROYAL*   CLOUDY    70  70 100 CALM      29.87S
LURAY*         RAIN     N/A N/A N/A CALM      29.88S
NEW MARKET*    CLOUDY   N/A N/A N/A CALM      29.88S
STAUNTON*      CLOUDY    70  69  97 N5        29.91S
WAYNESBORO*    CLOUDY    69  68  96 NW6       29.90F

$$

WVZ021-048>050-054>055-290900-
EASTERN WEST VIRGINIA PANHANDLE

CITY           SKY/WX    TMP DP  RH WIND       PRES   REMARKS
MARTINSBURG    CLOUDY    70  68  93 NW6       29.85S
PETERSBURG*    CLOUDY    70  70  98 CALM      29.91S FOG

$$

VAZ036>039-050-290900-
CENTRAL FOOTHILLS

CITY           SKY/WX    TMP DP  RH WIND       PRES   REMARKS
CHARLOTTESVILL LGT RAIN  74  72  93 NW3       29.85F
CULPEPER*      LGT RAIN  73  72  98 NW5       29.84F
ORANGE*          N/A     73  73 100 CALM      29.85S
GORDONSVILLE*  CLOUDY    73  72  99 NW5       29.83S
WARRENTON*     CLOUDY    74  68  83 NW5       29.82S

$$

VAZ055>057-290900-
NORTH AND CENTRAL PIEDMONT

CITY           SKY/WX    TMP DP  RH WIND       PRES   REMARKS
FREDERICKSBRG* CLOUDY    75  75 100 NW8       29.79F FOG
STAFFORD*      LGT RAIN  74  73  95 NW7       29.84F

$$

NCZ024-NYZ072-PAZ021-071-VAZ022-071-290900-
OTHER REGIONAL OBSERVATIONS

CITY           SKY/WX    TMP DP  RH WIND       PRES   REMARKS
NEW YORK CITY  CLOUDY    73  71  93 CALM      29.86F FOG
PHILADELPHIA   CLOUDY    75  73  93 N8        29.82S FOG
PITTSBURGH     PTCLDY    66  63  90 E3        29.92S FOG
ROANOKE        FAIR      72  70  93 W7        29.92S
RICHMOND       FAIR      75  73  93 SW5       29.80F
RALEIGH        CLEAR     78  70  76 W3        29.87S

$$

ANZ530>537-290900-
MARINE OBSERVATIONS

STATION/POSITION TIME  TEMP    WIND        PRES
                       AIR SEA DIR/SP/G
                 (UTC) (F)     (DEG/KT/KT) (MB)
THOMAS PT LIGHT  0800   77 84   30/  6/  7 1009.4F
BALT KEY BRIDGE  0742   75      30/  7/  8 1008.1F
COVE POINT       0742   77     270/  4/  5 1008.4F
LEWISETTA        0742   76 87  260/  7/  8 1007.6F
SOLOMONS ISLAND  0742   77 85  250/  6/  7   N/A
PINEY POINT      0748          250/  4/  7   N/A

$$





USA.gov is the U.S. government's official web portal to all federal, state and local government web resources and services.